Location: Street
(51.1247°N, 2.7429°W)
Time: 23:26:23
(UTC+00:00)

Courier 1B Rocket - All Passes

Search period start: 05 December 2020 00:00
Search period end: 15 December 2020 00:00
Orbit: 920 x 1202 km, 28.3° (Epoch: 05 December)

Date Brightness Start Highest point End Pass type
(mag) Time Alt. Az. Time Alt. Az. Time Alt. Az.
05 Dec - 05:20:14 10° SSW 05:22:48 12° S 05:25:22 10° SSE visible
06 Dec - 04:19:50 10° SSW 04:22:04 11° S 04:24:21 10° SSE visible
06 Dec - 06:13:18 10° SSW 06:14:05 10° S 06:14:52 10° S visible
07 Dec - 03:20:31 10° S 03:21:23 10° S 03:22:17 10° SSE visible
07 Dec - 05:11:17 10° SSW 05:13:23 11° S 05:15:30 10° S visible
08 Dec - 04:10:24 10° SSW 04:12:40 11° S 04:14:58 10° SSE visible
09 Dec - 03:10:13 10° S 03:11:59 11° S 03:13:47 10° SSE visible
10 Dec - 04:01:44 10° SSW 04:03:17 11° S 04:04:50 10° S visible
11 Dec - 03:00:59 10° SSW 03:02:36 11° S 03:04:14 10° SSE visible
12 Dec - 02:01:26 10° S 02:01:57 10° S 02:02:28 10° S night (unlit)
